This is the latest recevied weather packets stored in our database for station/object W6DSP. If no packets are shown the sender has not sent any weather packets the latest 10 day(s).
| Time | Temp. | Humidity | Pressure | Rain* | Wind** | Luminosity | Snow |
|---|---|---|---|---|---|---|---|
| 1777627746 | 6.11° C | 89% | 1013.1 hPa | 0 mm | - | - | - |
| 1777627016 | 6.67° C | 89% | 1013.2 hPa | 0 mm | - | - | - |
| 1777626314 | 7.22° C | 90% | 1013.2 hPa | 0 mm | - | - | - |
| 1777625617 | 7.22° C | 90% | 1013.2 hPa | 1.02 mm | - | - | - |
| 1777624881 | 7.22° C | 90% | 1013.1 hPa | 1.27 mm | - | - | - |
| 1777624182 | 7.22° C | 90% | 1013 hPa | 3.05 mm | - | - | - |
| 1777623468 | 7.78° C | 90% | 1013.5 hPa | 3.3 mm | - | - | - |
| 1777622765 | 8.33° C | 90% | 1013.2 hPa | 6.35 mm | - | - | - |
| 1777622052 | 8.33° C | 90% | 1013.2 hPa | 1.52 mm | - | - | - |
| 1777621349 | 8.33° C | 90% | 1013.3 hPa | 1.52 mm | - | - | - |
| 1777620597 | 8.33° C | 89% | 1013.4 hPa | 2.03 mm | - | - | - |
| 1777619888 | 8.33° C | 90% | 1013.5 hPa | 1.52 mm | - | - | - |
| 1777619162 | 8.33° C | 90% | 1013.5 hPa | 0 mm | - | - | - |
| 1777617691 | 8.33° C | 89% | 1013.8 hPa | 1.02 mm | - | - | - |
| 1777616991 | 8.89° C | 89% | 1014 hPa | 1.52 mm | - | - | - |
| 1777616238 | 8.89° C | 89% | 1014.1 hPa | 1.27 mm | - | - | - |
| 1777615516 | 8.89° C | 89% | 1014.3 hPa | 2.29 mm | - | - | - |
| 1777614764 | 8.89° C | 89% | 1014.5 hPa | 0 mm | - | - | - |
| 1777614062 | 8.89° C | 88% | 1014.4 hPa | 0 mm | - | - | - |
| 1777613321 | 8.89° C | 88% | 1014.6 hPa | 0 mm | - | - | - |
| 1777612588 | 8.89° C | 87% | 1014.7 hPa | 0 mm | - | - | - |
| 1777611151 | 8.89° C | 86% | 1014.8 hPa | 0 mm | - | - | - |
| 1777610418 | 8.89° C | 86% | 1015 hPa | 0 mm | - | - | - |
| 1777609708 | 8.89° C | 85% | 1015.1 hPa | 0 mm | - | - | - |
| 1777608949 | 9.44° C | 84% | 1015.2 hPa | 0 mm | - | - | - |
* Rain latest hour (hover to see other rain measurements)
** Current wind speed in m/s (hover to see current wind gust speed)